Location: Newark
(46.9000°N, 28.3500°E)
Time: 14:46:25
(UTC+00:00)

Explorer 7 - Pass Details

Date: 27 August 2019
Orbit: 485 x 680 km, 50.3° (Epoch: 22 September)

Event Time Altitude Azimuth Distance (km) Brightness Sun altitude
Rises 04:53:39 0° 201° (SSW) 3,021 10.4 15.1°
Reaches altitude 10° 04:56:26 10° 186° (S) 2,107 9.8 15.6°
Maximum altitude 05:00:10 22° 136° (SE) 1,453 9.8 16.2°
Drops below altitude 10° 05:03:51 10° 87° (E) 2,077 12.2 16.9°
Sets 05:06:34 0° 72° (ENE) 2,966 11.8 17.3°
